Wind_Speed
31 30 29 30 30 31 31 29 27 26 27 27 27 25 25 25 24 24 23 23 23 23 23 22 21 21 19 18 18 17 17 17 16 17 17 17 18 18 19 19 19 18 18 18
31 31 31 31 31 31 31 31 30 29 29 27 27 27 26 26 26 26 26 25 25 25 25 24 23 23 22 22 21 21 20 19 20 20 20 20 20 20 21 20 20 20 19 19
30 31 31 32 33 32 32 32 31 31 31 29 29 28 27 27 28 28 28 28 27 27 27 25 25 25 25 24 24 24 23 22 22 23 23 23 22 22 22 22 23 22 21 21
29 31 32 33 33 32 33 33 33 33 32 31 30 30 29 29 30 31 31 31 30 29 27 27 27 27 27 26 26 26 25 26 25 25 25 24 24 24 25 25 26 25 24 24
30 30 31 34 33 32 32 33 34 35 34 33 32 32 33 33 33 33 34 34 33 32 30 29 30 29 29 29 29 28 28 27 27 27 27 27 27 27 27 27 28 26 26 25
32 30 30 33 33 32 32 34 35 35 35 34 33 33 35 34 33 34 34 34 34 34 33 33 33 33 33 33 32 31 30 29 29 30 30 30 30 30 29 30 29 29 27 26
32 32 32 34 33 32 33 35 35 35 35 35 35 35 35 35 34 34 34 34 34 35 35 35 35 35 35 35 35 34 34 33 32 33 32 32 32 32 31 30 29 28 28 28
33 33 34 35 34 34 34 35 35 35 36 36 37 37 37 36 36 36 35 36 37 37 37 37 37 37 37 37 37 36 36 36 36 35 34 35 34 34 34 32 31 30 29 28
35 35 36 34 34 34 34 35 35 35 36 37 37 38 38 38 38 38 38 38 39 40 40 39 39 39 39 38 38 37 37 38 38 38 37 36 36 35 35 34 32 30 30 29
35 35 35 35 35 36 35 36 36 36 37 38 38 38 39 39 39 38 39 40 41 41 41 41 41 41 40 40 39 39 40 40 41 40 40 39 37 37 35 35 33 32 30 31
34 34 34 35 35 36 37 37 37 37 37 38 38 38 38 38 39 39 40 41 42 42 42 42 41 41 41 41 41 42 42 42 42 41 40 40 39 38 37 36 35 34 33 34
33 34 35 35 35 35 36 36 37 37 36 37 38 38 38 39 39 39 39 39 41 41 42 41 41 41 42 42 42 41 42 42 41 40 40 39 39 39 38 38 37 36 36 36
32 33 35 35 34 35 36 35 35 36 36 36 37 37 38 39 40 40 40 41 41 41 41 41 42 41 42 42 41 40 40 40 39 39 40 39 39 39 39 38 37 36 36 37
31 31 32 33 34 35 35 34 34 35 35 35 35 36 37 37 38 39 40 40 41 40 40 40 40 40 41 41 40 40 40 39 40 41 41 40 39 39 40 39 39 38 37 38
29 30 30 30 31 32 33 33 32 33 33 34 34 34 35 36 36 37 38 38 38 38 38 38 39 40 40 40 40 41 40 40 41 42 42 41 40 40 40 40 40 40 39 39
26 27 28 29 29 30 30 30 31 31 32 32 32 32 32 33 34 35 35 35 36 36 37 37 38 38 39 40 41 41 41 41 42 42 41 41 42 41 41 41 40 40 40 39
24 25 26 26 26 27 27 28 29 30 31 32 32 32 31 31 32 33 33 33 34 34 35 36 36 36 36 37 39 40 39 40 40 40 39 40 40 39 39 38 38 39 39 39
22 22 23 23 24 24 25 26 27 27 28 28 29 29 29 30 30 30 31 31 32 33 35 35 35 35 35 35 37 36 36 37 37 37 37 38 37 36 37 37 37 38 37 36
19 20 20 20 20 21 22 23 24 25 26 26 26 27 28 29 29 30 30 30 30 31 31 32 33 33 33 34 34 34 35 35 35 35 35 34 34 34 35 35 36 36 36 36
17 17 17 18 19 20 21 22 23 23 23 23 24 25 25 26 26 27 27 28 27 28 29 29 30 31 32 33 32 33 33 33 33 33 34 34 34 33 33 33 34 35 35 34
16 16 16 17 18 18 19 20 21 20 20 20 21 21 21 21 21 23 24 26 26 26 27 27 28 28 28 29 30 30 31 31 32 31 32 32 31 32 32 32 33 32 32 31
15 16 16 15 15 16 16 17 17 17 17 18 18 18 19 20 20 21 22 23 24 25 25 25 26 26 26 27 28 28 28 28 28 28 28 29 30 31 30 30 30 30 30 30
14 14 14 14 13 13 13 13 13 13 14 14 15 16 17 17 18 19 19 20 20 21 22 21 21 22 22 22 23 23 24 24 25 25 25 26 27 28 28 28 27 28 28 28
12 13 13 13 12 12 12 12 12 12 13 14 14 14 14 14 15 16 16 17 17 17 18 18 18 18 19 20 20 20 21 21 22 22 23 23 23 24 25 24 24 26 26 26
10 10 10 10 10 10 10 11 11 11 11 12 12 12 13 14 14 14 14 15 16 16 15 16 16 17 18 18 18 18 19 19 20 20 21 22 22 23 23 23 24 24 24 25
8 8 8 8 9 9 9 10 10 10 10 11 10 11 11 12 13 13 13 13 14 14 14 14 15 16 16 17 17 17 17 17 19 20 21 22 22 22 22 22 23 23 24 24
6 7 7 8 8 8 9 9 10 10 10 10 11 11 11 12 12 12 13 13 14 14 14 14 14 14 15 15 15 16 17 18 19 20 20 21 21 21 21 22 23 23 23 23
Wind_Direction
234 235 239 241 241 241 241 240 243 247 248 252 253 252 250 250 252 254 255 257 261 266 269 270 273 275 276 277 279 282 283 283 283 284 285 287 290 293 297 299 302 298 299 302
239 239 240 241 240 240 242 243 245 248 250 251 252 252 251 251 252 254 255 256 257 262 266 267 269 271 272 272 274 276 277 279 280 281 283 285 287 288 291 293 295 297 294 294
241 241 243 243 242 242 243 244 246 248 249 250 251 252 252 251 252 253 254 256 258 260 263 266 267 267 267 272 273 273 273 275 276 278 282 284 286 288 288 289 291 292 292 292
240 242 242 245 245 244 245 246 246 247 248 248 250 252 252 251 252 252 253 255 256 257 259 261 263 265 267 268 270 271 273 274 274 276 279 282 284 286 285 285 287 286 288 290
241 243 245 246 247 247 248 247 247 248 249 249 250 252 253 254 254 253 253 256 256 256 257 259 261 263 265 268 269 271 274 275 275 275 276 277 280 282 283 282 284 283 286 286
240 241 246 248 248 248 250 251 248 249 250 250 251 251 253 255 254 254 254 255 256 257 256 258 260 262 264 267 270 271 272 273 274 276 276 278 280 279 279 281 280 280 282 284
242 243 246 248 249 249 250 251 251 250 250 251 251 252 254 255 255 254 254 254 255 256 257 259 261 262 264 266 268 271 271 272 273 275 277 278 279 280 278 278 281 282 281 283
245 246 249 250 250 249 251 253 253 252 252 253 253 254 255 255 254 254 255 254 255 256 257 259 261 262 263 264 266 268 270 271 273 274 275 276 277 278 279 282 280 281 282 283
248 248 249 251 251 252 252 252 253 254 254 255 255 254 255 257 256 255 255 256 256 257 258 258 260 261 262 263 264 266 268 270 273 275 276 278 278 278 279 280 281 281 282 283
251 251 252 253 253 254 254 254 254 255 255 255 256 256 257 258 258 258 258 258 257 258 260 261 260 260 262 263 264 266 268 270 271 273 276 277 276 278 281 280 279 280 281 283
251 252 254 254 255 256 255 255 255 256 257 257 258 258 258 258 260 260 261 260 259 259 260 261 261 261 262 264 265 267 269 270 271 273 275 276 278 279 281 282 280 279 279 280
252 253 254 254 255 256 257 257 257 257 257 258 258 257 258 259 259 260 261 262 262 262 261 261 261 261 261 263 265 267 269 269 270 273 274 276 278 278 279 281 279 277 277 276
255 256 257 257 256 255 256 256 256 257 257 258 258 258 258 259 259 260 261 261 262 262 261 261 262 261 262 263 264 267 267 267 269 271 272 274 276 277 278 279 276 274 275 276
257 258 258 258 257 255 256 256 258 258 257 258 258 258 259 260 260 261 262 262 262 262 263 263 263 264 263 263 264 266 265 266 269 271 271 273 275 276 276 275 275 275 276 277
258 258 258 258 257 257 257 258 258 258 257 258 259 259 260 260 261 263 263 262 262 262 263 264 264 264 263 262 264 265 265 266 268 270 271 272 274 275 274 273 274 276 276 276
259 259 258 257 256 257 258 258 258 257 257 258 259 260 262 263 264 264 264 263 262 262 262 263 265 265 263 263 265 265 264 266 268 270 271 272 274 275 274 272 273 275 276 276
263 261 258 256 257 258 259 259 258 258 258 260 261 262 263 264 266 265 264 263 263 263 263 264 265 265 265 264 265 266 266 267 269 270 272 272 273 272 272 272 273 274 275 275
264 264 260 257 256 258 259 258 257 257 259 260 261 262 263 264 264 265 263 263 263 263 264 264 263 263 264 266 266 266 267 268 270 270 270 271 271 270 270 272 273 274 275 276
266 265 262 258 257 258 258 259 258 259 260 260 261 263 264 263 263 263 264 265 264 264 263 263 262 263 264 267 266 267 269 270 270 269 269 269 270 271 271 272 274 275 275 277
265 265 263 260 259 260 260 260 260 261 262 262 263 263 264 263 262 262 264 265 264 264 263 264 266 265 265 265 267 269 270 270 271 271 271 271 271 272 273 274 275 275 277 277
264 266 266 264 263 261 261 261 261 261 261 264 264 262 262 264 264 266 269 268 266 266 264 263 263 264 265 267 269 270 270 270 270 271 272 272 272 273 274 275 276 276 276 277
267 267 268 266 266 266 264 261 260 260 260 263 262 261 263 265 267 269 272 271 267 265 265 267 266 266 267 267 266 267 267 267 268 271 273 274 275 275 276 276 276 276 277 278
269 269 268 267 266 266 266 266 266 268 270 271 269 268 268 268 269 273 275 274 271 268 269 269 269 269 268 267 266 266 267 269 270 271 272 273 275 276 277 276 276 277 279 280
267 267 268 267 265 263 263 265 266 268 271 273 274 272 272 273 278 279 280 280 280 277 273 271 271 271 272 271 271 271 273 274 273 273 273 274 277 278 279 279 280 282 281 282
269 268 269 268 268 268 266 267 269 272 277 278 277 276 276 277 280 282 284 285 285 283 280 277 276 275 275 275 277 278 279 278 278 279 280 280 280 282 281 281 282 284 284 285
269 269 271 269 267 267 268 272 275 276 280 283 282 282 281 279 280 284 288 290 291 291 288 286 283 279 278 278 280 281 281 283 284 282 283 283 282 283 283 283 283 284 285 286
268 269 272 270 268 269 270 273 274 274 276 279 279 281 284 286 286 287 290 291 291 292 292 290 287 286 286 286 286 287 287 289 290 290 291 289 288 287 287 286 286 286 287 287
Height
5852 5855 5858 5860 5862 5865 5868 5871 5874 5876 5876 5878 5879 5880 5882 5883 5884 5886 5886 5887 5887 5887 5887 5887 5887 5887 5887 5886 5885 5884 5884 5883 5881 5880 5879 5878 5876 5875 5874 5872 5870 5868 5867 5865
5844 5847 5849 5852 5854 5857 5860 5862 5865 5867 5868 5870 5871 5873 5874 5876 5877 5879 5880 5880 5881 5881 5881 5881 5881 5881 5881 5881 5880 5879 5878 5877 5876 5875 5874 5873 5872 5870 5869 5867 5865 5863 5862 5860
5837 5839 5842 5844 5846 5849 5852 5854 5857 5858 5860 5862 5863 5865 5867 5868 5870 5871 5872 5873 5873 5874 5874 5874 5875 5875 5875 5874 5874 5873 5872 5871 5870 5870 5869 5868 5866 5865 5863 5861 5859 5857 5856 5854
5829 5832 5834 5837 5838 5841 5843 5845 5847 5849 5851 5853 5855 5857 5859 5860 5861 5863 5864 5865 5865 5866 5866 5867 5868 5867 5867 5867 5867 5866 5865 5864 5864 5864 5863 5861 5860 5859 5857 5855 5854 5851 5849 5847
5821 5823 5825 5827 5830 5832 5834 5836 5838 5840 5842 5844 5846 5848 5849 5851 5852 5854 5855 5856 5857 5858 5859 5859 5860 5860 5860 5860 5859 5859 5858 5857 5857 5856 5855 5854 5853 5851 5849 5848 5846 5844 5842 5840
5812 5815 5817 5818 5820 5823 5826 5826 5828 5830 5832 5835 5837 5839 5840 5841 5843 5844 5846 5847 5848 5849 5850 5850 5851 5851 5851 5851 5851 5851 5850 5850 5849 5848 5847 5846 5845 5843 5842 5840 5838 5836 5835 5833
5802 5804 5806 5807 5810 5813 5817 5817 5818 5820 5822 5824 5826 5828 5830 5831 5833 5834 5836 5837 5838 5839 5840 5841 5841 5841 5841 5842 5842 5842 5841 5840 5840 5839 5838 5837 5836 5835 5832 5831 5829 5826 5827 5825
5793 5795 5798 5798 5800 5803 5804 5805 5807 5809 5812 5813 5815 5817 5819 5821 5822 5824 5825 5826 5827 5829 5830 5830 5831 5831 5832 5832 5832 5832 5832 5831 5831 5830 5829 5828 5827 5825 5824 5822 5821 5819 5817 5816
5784 5786 5787 5788 5790 5792 5793 5795 5796 5798 5800 5802 5804 5806 5808 5809 5811 5813 5814 5815 5816 5817 5818 5819 5819 5820 5821 5821 5822 5822 5822 5821 5821 5820 5819 5818 5817 5815 5814 5814 5812 5810 5809 5808
5773 5775 5777 5778 5780 5781 5782 5784 5786 5787 5789 5790 5792 5794 5796 5798 5799 5801 5802 5803 5804 5805 5807 5808 5808 5809 5810 5811 5811 5811 5811 5811 5810 5810 5809 5808 5806 5805 5804 5802 5801 5800 5799 5799
5763 5765 5767 5768 5769 5770 5771 5773 5774 5776 5777 5779 5780 5782 5784 5786 5787 5789 5790 5791 5792 5793 5795 5796 5797 5797 5798 5799 5800 5800 5800 5799 5799 5798 5798 5797 5796 5795 5793 5792 5790 5790 5789 5789
5753 5755 5757 5758 5759 5760 5761 5762 5763 5765 5766 5768 5769 5771 5772 5774 5775 5777 5778 5779 5780 5781 5782 5783 5784 5785 5786 5787 5787 5788 5788 5788 5787 5787 5786 5786 5784 5784 5782 5782 5780 5779 5779 5778
5744 5745 5746 5747 5748 5749 5750 5751 5753 5754 5755 5757 5758 5759 5761 5762 5763 5765 5766 5767 5768 5769 5770 5771 5772 5773 5773 5774 5775 5775 5775 5776 5776 5776 5775 5774 5773 5772 5771 5770 5769 5768 5767 5766
5734 5734 5735 5736 5737 5738 5739 5740 5742 5743 5744 5746 5747 5748 5749 5750 5751 5752 5753 5754 5755 5756 5757 5758 5759 5760 5761 5762 5763 5763 5763 5764 5764 5764 5763 5762 5761 5761 5759 5759 5758 5757 5756 5755
5724 5725 5725 5726 5727 5727 5728 5730 5731 5732 5734 5735 5736 5737 5738 5739 5740 5741 5741 5742 5743 5744 5745 5746 5747 5748 5748 5749 5750 5750 5751 5751 5752 5751 5750 5749 5749 5748 5747 5747 5746 5746 5745 5744
5716 5716 5716 5716 5717 5718 5719 5720 5721 5723 5724 5725 5726 5727 5728 5729 5729 5729 5730 5730 5731 5732 5733 5734 5735 5735 5736 5736 5737 5737 5737 5738 5738 5738 5738 5737 5737 5736 5734 5734 5734 5733 5733 5732
5708 5708 5708 5708 5709 5709 5710 5711 5712 5713 5714 5716 5717 5717 5718 5718 5719 5719 5719 5719 5720 5721 5722 5722 5723 5723 5724 5725 5725 5725 5725 5725 5725 5725 5725 5724 5724 5724 5723 5722 5722 5721 5721 5720
5700 5700 5700 5701 5701 5702 5702 5703 5704 5705 5706 5706 5707 5708 5708 5708 5709 5709 5709 5709 5710 5710 5711 5711 5712 5712 5713 5713 5714 5713 5714 5714 5713 5712 5712 5712 5712 5711 5710 5710 5710 5710 5709 5708
5694 5694 5693 5694 5694 5695 5695 5696 5697 5697 5698 5698 5699 5699 5699 5699 5699 5700 5700 5699 5699 5700 5700 5700 5701 5701 5702 5702 5702 5702 5702 5701 5701 5701 5700 5700 5700 5699 5699 5699 5698 5698 5697 5696
5688 5688 5687 5687 5688 5688 5689 5689 5690 5690 5690 5690 5690 5690 5691 5691 5691 5691 5690 5690 5690 5690 5690 5690 5690 5691 5691 5691 5691 5691 5691 5691 5690 5690 5690 5689 5689 5689 5688 5688 5687 5686 5686 5685
5683 5682 5682 5682 5682 5682 5682 5682 5683 5683 5683 5683 5683 5683 5683 5683 5683 5683 5683 5682 5682 5681 5681 5681 5681 5681 5681 5681 5681 5681 5681 5681 5680 5680 5679 5679 5678 5678 5678 5677 5677 5676 5675 5674
5678 5677 5677 5677 5677 5677 5677 5677 5677 5677 5677 5677 5677 5677 5677 5677 5676 5676 5675 5674 5673 5673 5672 5672 5672 5672 5672 5671 5671 5671 5671 5671 5670 5670 5669 5669 5669 5668 5668 5667 5667 5666 5665 5664
5673 5673 5673 5673 5672 5672 5672 5672 5672 5672 5672 5672 5672 5671 5671 5671 5670 5669 5668 5667 5666 5665 5665 5664 5664 5664 5664 5663 5663 5663 5662 5662 5661 5661 5661 5660 5660 5659 5659 5658 5657 5656 5655 5654
5669 5669 5669 5668 5668 5668 5668 5668 5668 5668 5668 5668 5667 5667 5666 5665 5665 5663 5662 5661 5660 5659 5658 5657 5657 5657 5657 5657 5656 5656 5655 5654 5654 5653 5653 5652 5652 5651 5650 5649 5648 5647 5646 5645
5665 5665 5665 5665 5664 5664 5665 5665 5664 5664 5664 5663 5663 5662 5662 5661 5660 5659 5658 5656 5655 5654 5653 5652 5652 5651 5651 5651 5650 5649 5649 5648 5648 5647 5646 5645 5644 5643 5642 5641 5640 5639 5638 5637
5662 5662 5661 5661 5661 5661 5661 5661 5661 5660 5660 5660 5659 5659 5658 5657 5656 5655 5654 5653 5651 5650 5649 5648 5647 5647 5646 5646 5645 5644 5644 5643 5642 5641 5640 5638 5637 5636 5635 5634 5633 5632 5630 5629
5659 5659 5659 5658 5658 5658 5658 5658 5657 5657 5657 5657 5656 5656 5655 5653 5652 5651 5650 5649 5648 5647 5646 5644 5643 5642 5642 5641 5640 5639 5639 5638 5636 5635 5634 5632 5630 5629 5628 5627 5626 5624 5622 5621